Tracking 25734 objects as of 27-May-2022
HD Live streaming from Space Station
objects crossing your sky now

SL-16 DEB

Track SL-16 DEB now!
10-day predictions


NORAD ID: 22615
Int'l Code: 1993-016Z
Perigee: 834.5 km
Apogee: 1,032.3 km
Inclination: 71.0 °
Period: 103.5 minutes
Semi major axis: 7304 km
RCS: 0.015 m2 (small)
Launch date: March 26, 1993
Source: Commonwealth of Independent States (former USSR) (CIS)
Launch site: TYURATAM MISSILE AND SPACE COMPLEX (TTMTR)

Note: This is SATELLITE DEBRIS
aabbcc
Your satellite tracking list
Your tracking list is empty




NASA's NSSDC Master Catalog

Two Line Element Set (TLE):
1 22615U 93016Z   22146.57082399  .00000673  00000-0  53335-3 0  9991
2 22615  71.0026 189.9231 0135349 133.7609 349.7108 13.90676414475189
Source of the keplerian elements: AFSPC